Location: Newark
(41.8083°N, 72.2500°W)
Time: 14:27:18
(UTC+00:00)

deb Explorer IX - Pass Details

Date: 04 December 2021
Orbit: 544 x 1082 km, 38.8° (Epoch: 19 January)

Event Time Altitude Azimuth Distance (km) Brightness Sun altitude
Rises 15:06:22 0° 239° (WSW) 3,080 ? 22.4°
Reaches altitude 10° 15:09:01 10° 232° (SW) 2,076 ? 22.5°
Maximum altitude 15:13:26 39° 164° (SSE) 915 ? 22.9°
Drops below altitude 10° 15:17:24 10° 95° (E) 1,867 ? 23.1°
Sets 15:19:40 0° 87° (E) 2,728 ? 23.3°
